Regional Weather Roundup
Issued by NWS

Home | Current Version | Previous Version | Text Only | Print | Product List | Glossary On
Versions: 1 2 3 4 5 6 7 8 9 10 11 12 13 14 15 16 17 18 19 20 21 22 23 24 25 26 27 28 29 30 31 32 33 34 35 36 37 38 39 40 41 42 43 44 45 46 47 48 49 50
000
ASUS44 KFWD 061803
RWRTX
NORTH TEXAS HOURLY WEATHER ROUNDUP
NATIONAL WEATHER SERVICE FORT WORTH TX
100 PM CDT MON JUL 06 2015

NOTE: "FAIR" INDICATES FEW OR NO CLOUDS BELOW 12,000 FEET WITH NO
SIGNIFICANT WEATHER AND/OR OBSTRUCTIONS TO VISIBILITY.

TXZ118-119-061900-
DALLAS/FORT WORTH METROPLEX

CITY           SKY/WX    TMP DP  RH WIND       PRES   REMARKS
DFW AIRPORT    PTSUNNY   90  68  48 S22G30    29.99F HX  94
6HR MIN TEMP:  80; 6HR MAX TEMP:  91;

DALLAS LOVE    PTSUNNY   89  67  47 S14G26    30.00F HX  92
6HR MIN TEMP:  80; 6HR MAX TEMP:  90;

FTW MEACHAM    MOSUNNY   90  68  48 S20G26    29.99F HX  94
6HR MIN TEMP:  80; 6HR MAX TEMP:  91;

DAL-EXECUTIVE  MOSUNNY   88  69  53 S10G28    30.01F HX  92
6HR MIN TEMP:  78; 6HR MAX TEMP:  89;

FTW-ALLIANCE   MOSUNNY   89  68  49 S16G28    29.98F HX  93
6HR MIN TEMP:  79; 6HR MAX TEMP:  89;

FTW-NAS-JRB    MOSUNNY   91  68  46 S20G31    30.00F HX  95
6HR MIN TEMP:  80; 6HR MAX TEMP:  91;

FTW-SPINKS     MOSUNNY   90  68  48 SE18G26   30.02F HAZE    HX  93
ARLINGTON      MOSUNNY   91  67  44 S20G30    30.00F HX  94
GRAND PRAIRIE  SUNNY     90  72  55 S18G30    30.02F HX  96
ADDISON        MOSUNNY   90  66  45 S15G29    30.02F HX  92
MESQUITE       MOSUNNY   90  70  51 S17G25      N/A  HX  95
LANCASTER      MOSUNNY   88  65  47 S23G30    30.03F HX  90
6HR MIN TEMP:  77; 6HR MAX TEMP:  88;

$$

TXZ091>094-102>105-117-120-121-131>134-061900-
NORTH CENTRAL TEXAS

CITY           SKY/WX    TMP DP  RH WIND       PRES   REMARKS
SHRMAN/DENISON MOSUNNY   89  73  59 S18       30.01F HX  97
6HR MIN TEMP:  79; 6HR MAX TEMP:  89;

BRIDGEPORT     CLOUDY    87  72  60 S14G20    30.00S HX  93
6HR MIN TEMP:  76; 6HR MAX TEMP:  88;

DECATUR        MOSUNNY   87  68  53 S18G25    30.00F HX  90
6HR MIN TEMP:  76; 6HR MAX TEMP:  87;

DENTON         MOSUNNY   90  71  53 S22G30    29.99F HX  96
6HR MIN TEMP:  79; 6HR MAX TEMP:  90;

MCKINNEY       MOSUNNY   88  69  53 S24G31    30.00F HX  92
6HR MIN TEMP:  79; 6HR MAX TEMP:  88;

ROCKWALL       MOSUNNY   89  70  54 S18G25    30.01F HX  94
6HR MIN TEMP:  78; 6HR MAX TEMP:  89;

TERRELL        MOSUNNY   89  71  55 S22G30    30.03F HX  95
6HR MIN TEMP:  77; 6HR MAX TEMP:  89;

WAXAHACHIE     MOSUNNY   88  70  55 S20G28    30.03F HX  93
6HR MIN TEMP:  76; 6HR MAX TEMP:  88;

CLEBURNE       MOSUNNY   88  72  58 S16G23    30.03F HX  94
$$

TXZ083>090-098>101-113>116-127>130-139>142-154-155-061900-
WESTERN NORTH TEXAS

CITY           SKY/WX    TMP DP  RH WIND       PRES   REMARKS
WICHITA FALLS  PTSUNNY   88  73  61 S16G28    29.94F HX  95
6HR MIN TEMP:  77; 6HR MAX TEMP:  89;

WF-KICKAPOO    MOSUNNY   92  71  50 S20G26    29.96S HX  99
6HR MIN TEMP:  78; 6HR MAX TEMP:  92;

VERNON         MOSUNNY   94  66  39 S18       29.93F HX  97
6HR MIN TEMP:  76; 6HR MAX TEMP: 100;

ABILENE        MOSUNNY   90  69  50 S18G28    29.98F HX  94
6HR MIN TEMP:  76; 6HR MAX TEMP:  91;

BRECKENRIDGE   PTSUNNY   89  69  50 S14G25    29.98S HX  94
6HR MIN TEMP:  78; 6HR MAX TEMP:  89;

GRAHAM         CLOUDY    87  72  61 S15G21    29.96F HX  93
6HR MIN TEMP:  77; 6HR MAX TEMP:  88;

MINERAL WELLS  MOSUNNY   89  68  49 S17G29    29.98F HX  93
6HR MIN TEMP:  75; 6HR MAX TEMP:  89;

STEPHENVILLE   SUNNY     87  64  45 S17G25    30.04F
6HR MIN TEMP:  76; 6HR MAX TEMP:  87;

COMANCHE       SUNNY     88  67  48 S13G29    30.01F HX  91
6HR MIN TEMP:  75; 6HR MAX TEMP:  89;

COLEMAN        PTSUNNY   88  71  57 S17G24    30.00F HX  94
6HR MIN TEMP:  76; 6HR MAX TEMP:  88;

$$

TXZ143>147-156>162-174-175-061900-
CENTRAL TEXAS

CITY           SKY/WX    TMP DP  RH WIND       PRES   REMARKS
WACO           MOSUNNY   91  68  46 S23G30    30.02F HX  95
6HR MIN TEMP:  77; 6HR MAX TEMP:  91;

WACO-TSTC      MOSUNNY   90  70  51 S18G28    30.03F HX  95
WACO-MCGREGOR  MOSUNNY   90  70  51 S24       30.03F HX  95
6HR MIN TEMP:  75; 6HR MAX TEMP:  90;

CORSICANA      LGT RAIN  90  71  53 S21G26    30.05F HX  96
6HR MIN TEMP:  78; 6HR MAX TEMP:  91; 6HR PCP: TRACE;

MEXIA          PTSUNNY   87  72  61 MISG      30.05S HX  93
6HR MIN TEMP:  76; 6HR MAX TEMP:  87;

HEARNE         PTSUNNY   88  73  61 S15       30.07F HX  95
6HR MIN TEMP:  77; 6HR MAX TEMP:  88;

TEMPLE         MOSUNNY   90  68  48 S23G30    30.03F HX  93
6HR MIN TEMP:  75; 6HR MAX TEMP:  90;

KILLEEN        NOT AVBL
KILLEEN-SKYLRK MOSUNNY   90  68  48 S20       30.03F HX  93
GATESVILLE     SUNNY     90  66  45 S15G22    30.05F HX  92
HAMILTON       SUNNY     89  64  43 S23G30    30.03F HX  90
6HR MIN TEMP:  76; 6HR MAX TEMP:  89;

$$

TXZ095>097-106>112-122>126-135>138-148>153-164>167-061900-
EAST TEXAS

CITY           SKY/WX    TMP DP  RH WIND       PRES   REMARKS
PARIS          PTSUNNY   86  72  62 S22G28    30.04S HX  92
6HR MIN TEMP:  75; 6HR MAX TEMP:  86;

SULPHUR SPRNGS PTSUNNY   87  70  56 S20G25    30.06F HX  92
6HR MIN TEMP:  78; 6HR MAX TEMP:  88;

GILMER         CLOUDY    86  71  59 S14G20    30.07S HX  91
6HR MIN TEMP:  75; 6HR MAX TEMP:  86;

MINEOLA        PTSUNNY   88  73  62 S10G17    30.06F HX  96
TYLER          CLOUDY    88  72  58 S17G24    30.06F HX  94
6HR MIN TEMP:  78; 6HR MAX TEMP:  88;

LONGVIEW       PTSUNNY   93  74  53 S13       30.06F HX 103
6HR MIN TEMP:  81; 6HR MAX TEMP:  93;

MARSHALL       PTSUNNY   89  74  60 S13G21    30.10S HX  98
6HR MIN TEMP:  78; 6HR MAX TEMP:  90;

ATHENS         PTSUNNY   86  70  58 S10G20    30.05S HX  90
PALESTINE      PTSUNNY   89  73  58 S10G16    30.08S HX  96
JACKSONVILLE   PTSUNNY   88  71  56 S10G17    30.11S HX  93
HENDERSON      PTSUNNY   88  72  58 S13G23    30.09S HX  94
6HR MIN TEMP:  77; 6HR MAX TEMP:  88;

NACOGDOCHES    PTSUNNY  N/A N/A N/A S13       30.07F
LUFKIN         PTSUNNY   92  73  53 S12       30.08F HX 100
6HR MIN TEMP:  78; 6HR MAX TEMP:  92;

$$

SUPPLEMENTAL OBSERVATIONS (CENTRAL)

CITY           SKY/WX    TMP DP  RH WIND       PRES   REMARKS
$$

SUPPLEMENTAL OBSERVATIONS (WEST)

CITY           SKY/WX    TMP DP  RH WIND       PRES   REMARKS
$$

SUPPLEMENTAL OBSERVATIONS (EAST)

CITY           SKY/WX    TMP DP  RH WIND       PRES   REMARKS
$$

SUPPLEMENTAL OBSERVATIONS ARE A COLLECTION OF AUTOMATED INSTRUMENTS
THAT ARE MAINTAINED BY A VARIETY OF FEDERAL AND STATE AGENCIES.
CERTAIN ELEMENTS...SUCH AS HUMIDITY VALUES AND SUSTAINED WIND
SPEEDS...MAY BE APPROXIMATED.




USA.gov is the U.S. government's official web portal to all federal, state and local government web resources and services.